Sacramento, CA

1:22 AM PDT on April 23, 2017 (GMT -0700)
Sacramento Executive

Weather History for KSAC - February, 2013

Change the Weather History Date:

Wednesday, February 27, 2013

  Actual Average Record
Temperature  
Mean Temperature 51 °F -  
Max Temperature 67 °F 63 °F 76 °F (1985)
Min Temperature 34 °F 43 °F 28 °F (1962)
Degree Days  
Heating Degree Days 14    
Cooling Degree Days 0    
Moisture  
Dew Point 32 °F    
Average Humidity 55    
Maximum Humidity 82    
Minimum Humidity 28    
Precipitation  
Precipitation 0.00 in 0.11 in 1.81 in (1973)
Month to date precipitation 0.36 3.35  
Year to date precipitation 1.32 6.99  
Since 1 July precipitation 12.61  
Sea Level Pressure  
Sea Level Pressure 30.29 in    
Wind  
Wind Speed 1 mph (SSE)    
Max Wind Speed 7 mph    
Max Gust Speed 8 mph    
Visibility 10 miles    
Events      
T = Trace of Precipitation, MM = Missing Value Source: NWS Daily Summary

Daily Weather History Graph

Daily Weather History Graph

Search for Another Location

Airport or City:

Trip Planner

Search our weather history database for the weather conditions in past years. The results will help you decide how hot, cold, wet, or windy it might be!

Date:

Astronomy

Feb. 27, 2013 Rise Set
Actual Time 6:40 AM PST 5:57 PM PST
Civil Twilight 6:13 AM PST 6:23 PM PST
Nautical Twilight 5:43 AM PST 6:54 PM PST
Astronomical Twilight 5:12 AM PST 7:25 PM PST
Moon 8:21 PM PST (2/27) 7:20 AM PST (2/27)
Length of Visible Light 12h 10m
Length of Day
11h 16m
Waning Gibbous, 96% of the Moon is Illuminated
Feb 27
Waning Gibbous
Mar 4
Last Quarter
Mar 11
New
Mar 19
First Quarter
Mar 27
Full

Hourly Weather History & Observations

Time (PST) Temp. Windchill Dew Point Humidity Pressure Visibility Wind Dir Wind Speed Gust Speed Precip Events Conditions
12:53 AM 41.0 °F - 30.0 °F 65% 30.22 in 10.0 mi Calm Calm - N/A   Clear
1:53 AM 39.9 °F - 28.9 °F 65% 30.22 in 10.0 mi Calm Calm - N/A   Clear
2:53 AM 37.0 °F - 28.9 °F 73% 30.23 in 10.0 mi Calm Calm - N/A   Clear
3:53 AM 36.0 °F - 28.9 °F 76% 30.24 in 10.0 mi Calm Calm - N/A   Clear
4:53 AM 34.0 °F 31.0 °F 28.9 °F 82% 30.25 in 10.0 mi SE 3.5 mph - N/A   Clear
5:53 AM 34.0 °F - 28.0 °F 79% 30.26 in 10.0 mi Calm Calm - N/A   Clear
6:53 AM 34.0 °F - 28.0 °F 79% 30.28 in 10.0 mi Calm Calm - N/A   Clear
7:53 AM 42.1 °F - 34.0 °F 73% 30.32 in 10.0 mi Calm Calm - N/A   Clear
8:53 AM 46.4 °F 45.2 °F 33.8 °F 62% 30.33 in 10.0 mi SE 3.5 mph - N/A   Clear
9:53 AM 52.0 °F - 35.1 °F 53% 30.34 in 10.0 mi SW 4.6 mph - N/A   Clear
10:53 AM 54.0 °F - 35.1 °F 49% 30.33 in 10.0 mi Variable 3.5 mph - N/A   Clear
11:53 AM 60.1 °F - 36.0 °F 41% 30.32 in - Calm Calm - N/A   Clear
12:53 PM - - - N/A% 30.32 in - Calm Calm - N/A   Clear
1:53 PM - - - N/A% 30.29 in 10.0 mi North - - N/A   Clear
2:53 PM 66.0 °F - 32.0 °F 28% 30.27 in 10.0 mi Calm Calm - N/A   Clear
3:53 PM 66.0 °F - 30.9 °F 27% 30.27 in 10.0 mi Calm Calm - N/A   Clear
4:53 PM 66.0 °F - 30.9 °F 27% 30.26 in 10.0 mi Calm Calm - N/A   Clear
5:53 PM 63.0 °F - 28.9 °F 28% 30.27 in 10.0 mi Calm Calm - N/A   Clear
6:53 PM 55.9 °F - 30.9 °F 39% 30.29 in 10.0 mi Calm Calm - N/A   Clear
7:53 PM 52.0 °F - 34.0 °F 50% 30.30 in 10.0 mi Calm Calm - N/A   Clear
8:53 PM 51.1 °F - 36.0 °F 56% 30.32 in 10.0 mi Calm Calm - N/A   Clear
9:53 PM 51.1 °F - 36.0 °F 56% 30.33 in 10.0 mi South 3.5 mph - N/A   Clear
10:53 PM 50.0 °F - 36.0 °F 59% 30.35 in 10.0 mi ESE 3.5 mph - N/A   Clear
11:53 PM 50.0 °F - 36.0 °F 59% 30.35 in 10.0 mi Calm Calm - N/A   Clear